Location: Unspecified
(0.0000°N, 0.0000°E)
Time: 02:55:42
(UTC+00:00)

BlueWalker 3 - Pass Details

Date: 18 July 2024
Orbit: 480 x 491 km, 53.2° (Epoch: 24 July)

Event Time Altitude Azimuth Distance (km) Brightness Sun altitude
Rises 18:49:25 0° 341° (NNW) 2,516 6.1 -10.1°
Reaches altitude 10° 18:51:43 10° 350° (N) 1,640 5.0 -10.6°
Maximum altitude 18:55:05 33° 56° (NE) 814 2.7 -11.4°
Enters shadow 18:57:13 18° 111° (ESE) 1,219 3.2 -11.9°
